2016-11-19 00:05:12 r, 15.83m,0000000041Hz,0000011233c,0000000.024s, 014.5C,00002195
2016-11-19 00:15:12 r, 15.50m,0000000055Hz,0000008258c,0000000.018s, 014.5C,00002195
2016-11-19 00:25:12 r, 15.77m,0000000043Hz,0000010630c,0000000.023s, 014.5C,00002195
2016-11-19 00:35:12 r, 16.06m,0000000034Hz,0000013781c,0000000.030s, 014.5C,00002195
2016-11-19 00:45:12 r, 16.44m,0000000023Hz,0000019735c,0000000.043s, 014.5C,00002195
2016-11-19 00:55:12 r, 16.57m,0000000021Hz,0000022244c,0000000.048s, 014.5C,00002195
2016-11-19 01:05:12 r, 16.54m,0000000021Hz,0000021571c,0000000.047s, 014.5C,00002195
2016-11-19 01:15:12 r, 16.57m,0000000021Hz,0000022219c,0000000.048s, 014.5C,00002195
2016-11-19 01:25:12 r, 16.84m,0000000017Hz,0000028354c,0000000.062s, 014.5C,00002195
2016-11-19 01:35:12 r, 16.95m,0000000015Hz,0000031340c,0000000.068s, 014.5C,00002195
2016-11-19 01:45:12 r, 17.13m,0000000013Hz,0000036898c,0000000.080s, 014.5C,00002195
2016-11-19 01:55:13 r, 17.36m,0000000010Hz,0000046066c,0000000.100s, 014.1C,00002195
2016-11-19 02:05:12 r, 17.66m,0000000007Hz,0000060452c,0000000.131s, 014.1C,00002195
2016-11-19 02:15:12 r, 17.61m,0000000007Hz,0000057687c,0000000.125s, 014.1C,00002195
2016-11-19 02:25:12 r, 17.77m,0000000007Hz,0000067059c,0000000.146s, 013.8C,00002195
2016-11-19 02:35:12 r, 17.62m,0000000008Hz,0000057983c,0000000.126s, 013.8C,00002195
2016-11-19 02:45:12 r, 17.55m,0000000009Hz,0000054433c,0000000.118s, 013.8C,00002195
2016-11-19 02:55:12 r, 17.56m,0000000008Hz,0000055017c,0000000.119s, 013.5C,00002195
2016-11-19 03:05:12 r, 17.55m,0000000009Hz,0000054355c,0000000.118s, 013.5C,00002195
2016-11-19 03:15:13 r, 17.35m,0000000010Hz,0000045062c,0000000.098s, 013.5C,00002195
2016-11-19 03:25:12 r, 17.73m,0000000007Hz,0000064336c,0000000.140s, 013.2C,00002195
2016-11-19 03:35:12 r, 17.69m,0000000007Hz,0000062436c,0000000.135s, 013.2C,00002195
2016-11-19 03:45:12 r, 17.70m,0000000007Hz,0000062668c,0000000.136s, 012.8C,00002195
2016-11-19 03:55:12 r, 17.66m,0000000008Hz,0000060406c,0000000.131s, 012.8C,00002195
2016-11-19 04:05:12 r, 17.63m,0000000007Hz,0000058871c,0000000.128s, 012.8C,00002195
2016-11-19 04:15:13 r, 17.50m,0000000009Hz,0000051982c,0000000.113s, 012.8C,00002195
2016-11-19 04:25:12 r, 17.39m,0000000010Hz,0000047072c,0000000.102s, 012.8C,00002195
2016-11-19 04:35:12 r, 17.28m,0000000011Hz,0000042542c,0000000.092s, 012.8C,00002195
2016-11-19 04:45:12 r, 17.19m,0000000012Hz,0000039380c,0000000.085s, 012.8C,00002195
2016-11-19 04:55:12 r, 17.14m,0000000013Hz,0000037491c,0000000.081s, 012.5C,00002195
2016-11-19 05:05:12 r, 17.09m,0000000012Hz,0000035816c,0000000.078s, 012.5C,00002195
2016-11-19 05:15:12 r, 17.09m,0000000013Hz,0000035810c,0000000.078s, 012.5C,00002195
2016-11-19 05:25:12 r, 17.11m,0000000012Hz,0000036491c,0000000.079s, 012.5C,00002195
2016-11-19 05:35:12 r, 17.19m,0000000011Hz,0000039415c,0000000.086s, 012.5C,00002195
2016-11-19 05:45:12 r, 17.33m,0000000010Hz,0000044480c,0000000.097s, 012.5C,00002195
2016-11-19 05:55:12 r, 17.54m,0000000009Hz,0000053880c,0000000.117s, 012.5C,00002195
2016-11-19 06:05:12 r, 17.88m,0000000006Hz,0000073898c,0000000.160s, 012.5C,00002195
2016-11-19 06:15:12 r, 18.01m,0000000006Hz,0000083549c,0000000.181s, 012.2C,00002195
2016-11-19 06:25:12 r, 17.99m,0000000005Hz,0000081902c,0000000.178s, 012.2C,00002195
2016-11-19 06:35:12 r, 17.88m,0000000006Hz,0000073817c,0000000.160s, 012.2C,00002195
2016-11-19 06:45:12 r, 17.39m,0000000010Hz,0000047279c,0000000.103s, 012.2C,00002195
2016-11-19 06:55:12 r, 16.34m,0000000026Hz,0000017977c,0000000.039s, 012.2C,00002195
2016-11-19 07:05:12 r, 14.70m,0000000116Hz,0000003957c,0000000.009s, 011.9C,00002195
2016-11-19 07:15:12 r, 12.74m,0000000715Hz,0000000000c,0000000.000s, 011.9C,00002195
2016-11-19 07:25:12 r, 10.77m,0000004353Hz,0000000000c,0000000.000s, 011.9C,00002195
2016-11-19 07:35:12 r, 08.81m,0000026614Hz,0000000000c,0000000.000s, 011.9C,00002195
2016-11-19 07:45:12 r, 07.76m,0000069865Hz,0000000000c,0000000.000s, 011.9C,00002195
2016-11-19 07:55:12 r, 06.96m,0000146550Hz,0000000000c,0000000.000s, 012.2C,00002195
2016-11-19 08:05:12 r, 06.58m,0000208561Hz,0000000000c,0000000.000s, 012.8C,00002195
2016-11-19 08:15:12 r, 05.96m,0000368432Hz,0000000000c,0000000.000s, 012.8C,00002195
2016-11-19 08:25:13 r, 05.88m,0000397216Hz,0000000000c,0000000.000s, 013.5C,00002195
2016-11-19 08:35:12 r, 00.00m,0000562591Hz,0000000000c,0000000.000s, 013.5C,00002195
2016-11-19 08:45:13 r, 00.00m,0000562554Hz,0000000000c,0000000.000s, 013.8C,00002195
2016-11-19 08:55:12 r, 00.00m,0000562638Hz,0000000000c,0000000.000s, 014.1C,00002195
2016-11-19 09:05:12 r, 00.00m,0000562690Hz,0000000000c,0000000.000s, 014.5C,00002195
2016-11-19 09:15:13 r, 00.00m,0000562692Hz,0000000000c,0000000.000s, 014.5C,00002195
2016-11-19 09:25:12 r, 00.00m,0000562771Hz,0000000000c,0000000.000s, 014.8C,00002195
2016-11-19 09:35:12 r, 00.00m,0000562825Hz,0000000000c,0000000.000s, 015.1C,00002195
2016-11-19 09:45:12 r, 00.00m,0000562924Hz,0000000000c,0000000.000s, 015.4C,00002195
2016-11-19 09:55:12 r, 00.00m,0000563023Hz,0000000000c,0000000.000s, 015.7C,00002195
2016-11-19 10:05:12 r, 00.00m,0000563022Hz,0000000000c,0000000.000s, 016.4C,00002195
2016-11-19 10:15:14 r, 00.00m,0000563070Hz,0000000000c,0000000.000s, 016.7C,00002195
2016-11-19 10:25:12 r, 00.00m,0000563132Hz,0000000000c,0000000.000s, 016.7C,00002195
2016-11-19 10:35:12 r, 00.00m,0000563194Hz,0000000000c,0000000.000s, 017.4C,00002195
2016-11-19 10:45:12 r, 00.00m,0000563163Hz,0000000000c,0000000.000s, 018.0C,00002195
2016-11-19 10:55:12 r, 00.00m,0000563270Hz,0000000000c,0000000.000s, 018.0C,00002195
2016-11-19 11:05:12 r, 00.00m,0000563291Hz,0000000000c,0000000.000s, 018.3C,00002195
2016-11-19 11:15:12 r, 00.00m,0000563275Hz,0000000000c,0000000.000s, 018.3C,00002195
2016-11-19 11:25:12 r, 00.00m,0000563241Hz,0000000000c,0000000.000s, 018.6C,00002195
2016-11-19 11:35:12 r, 00.00m,0000563284Hz,0000000000c,0000000.000s, 018.3C,00002195
2016-11-19 11:45:12 r, 00.00m,0000563289Hz,0000000000c,0000000.000s, 018.6C,00002195
2016-11-19 11:55:13 r, 00.00m,0000563345Hz,0000000000c,0000000.000s, 018.6C,00002195
2016-11-19 12:05:13 r, 00.00m,0000563196Hz,0000000000c,0000000.000s, 018.3C,00002195
2016-11-19 12:15:13 r, 00.00m,0000563201Hz,0000000000c,0000000.000s, 018.6C,00002195
2016-11-19 12:25:12 r, 00.00m,0000563261Hz,0000000000c,0000000.000s, 018.6C,00002195
2016-11-19 12:35:12 r, 00.00m,0000563268Hz,0000000000c,0000000.000s, 018.6C,00002195
2016-11-19 12:45:12 r, 00.00m,0000563314Hz,0000000000c,0000000.000s, 019.0C,00002195
2016-11-19 12:55:12 r, 00.00m,0000563409Hz,0000000000c,0000000.000s, 019.3C,00002195
2016-11-19 13:05:12 r, 00.00m,0000563405Hz,0000000000c,0000000.000s, 019.6C,00002195
2016-11-19 13:15:12 r, 00.00m,0000563329Hz,0000000000c,0000000.000s, 019.3C,00002195
2016-11-19 13:25:12 r, 00.00m,0000563435Hz,0000000000c,0000000.000s, 020.3C,00002195
2016-11-19 13:35:13 r, 00.00m,0000563498Hz,0000000000c,0000000.000s, 020.9C,00002195
2016-11-19 13:45:13 r, 00.00m,0000563576Hz,0000000000c,0000000.000s, 020.9C,00002195
2016-11-19 13:55:15 r, 00.00m,0000563564Hz,0000000000c,0000000.000s, 020.9C,00002195
2016-11-19 14:05:13 r, 00.00m,0000563362Hz,0000000000c,0000000.000s, 020.3C,00002195
2016-11-19 14:15:13 r, 00.00m,0000563362Hz,0000000000c,0000000.000s, 019.9C,00002195
2016-11-19 14:25:13 r, 00.00m,0000563234Hz,0000000000c,0000000.000s, 019.0C,00002195
2016-11-19 14:35:13 r, 00.00m,0000563051Hz,0000000000c,0000000.000s, 018.0C,00002195
2016-11-19 14:45:13 r, 00.00m,0000562978Hz,0000000000c,0000000.000s, 017.4C,00002195
2016-11-19 14:55:13 r, 00.00m,0000562959Hz,0000000000c,0000000.000s, 016.7C,00002195
2016-11-19 15:05:13 r, 00.00m,0000562914Hz,0000000000c,0000000.000s, 016.4C,00002195
2016-11-19 15:15:13 r, 00.00m,0000562925Hz,0000000000c,0000000.000s, 016.4C,00002195
2016-11-19 15:25:13 r, 00.00m,0000543255Hz,0000000000c,0000000.000s, 016.1C,00002195
2016-11-19 15:35:14 r, 00.00m,0000561867Hz,0000000000c,0000000.000s, 016.1C,00002195
2016-11-19 15:45:13 r, 00.00m,0000562770Hz,0000000000c,0000000.000s, 016.1C,00002195
2016-11-19 15:55:13 r, 00.00m,0000520720Hz,0000000000c,0000000.000s, 015.7C,00002195
2016-11-19 16:05:13 r, 06.11m,0000320726Hz,0000000000c,0000000.000s, 015.7C,00002195
2016-11-19 16:15:13 r, 06.50m,0000223806Hz,0000000000c,0000000.000s, 015.4C,00002195
2016-11-19 16:25:13 r, 06.83m,0000165832Hz,0000000000c,0000000.000s, 015.1C,00002195
2016-11-19 16:35:13 r, 07.31m,0000106171Hz,0000000000c,0000000.000s, 015.1C,00002195
2016-11-19 16:45:13 r, 08.27m,0000043854Hz,0000000000c,0000000.000s, 015.1C,00002195
2016-11-19 16:55:13 r, 09.48m,0000014438Hz,0000000000c,0000000.000s, 015.1C,00002195
2016-11-19 17:05:13 r, 11.31m,0000002684Hz,0000000000c,0000000.000s, 014.8C,00002195
2016-11-19 17:15:13 r, 13.11m,0000000507Hz,0000000000c,0000000.000s, 015.1C,00002195
2016-11-19 17:25:13 r, 15.12m,0000000080Hz,0000005790c,0000000.013s, 015.1C,00002195
2016-11-19 17:35:13 r, 16.57m,0000000021Hz,0000022046c,0000000.048s, 015.1C,00002195
2016-11-19 17:45:13 r, 17.25m,0000000011Hz,0000041492c,0000000.090s, 014.8C,00002195
2016-11-19 17:55:13 r, 16.86m,0000000016Hz,0000029017c,0000000.063s, 014.8C,00002195
2016-11-19 18:05:13 r, 16.66m,0000000019Hz,0000023818c,0000000.052s, 015.1C,00002195
2016-11-19 18:15:13 r, 16.84m,0000000016Hz,0000028182c,0000000.061s, 015.1C,00002195
2016-11-19 18:25:13 r, 17.15m,0000000013Hz,0000037830c,0000000.082s, 015.1C,00002195
2016-11-19 18:35:13 r, 16.64m,0000000020Hz,0000023542c,0000000.051s, 015.1C,00002195
2016-11-19 18:45:13 r, 16.66m,0000000020Hz,0000023824c,0000000.052s, 015.1C,00002195
2016-11-19 18:55:13 r, 16.81m,0000000017Hz,0000027532c,0000000.060s, 015.1C,00002195
2016-11-19 19:05:13 r, 17.05m,0000000014Hz,0000034460c,0000000.075s, 015.1C,00002195
2016-11-19 19:15:13 r, 17.27m,0000000011Hz,0000042051c,0000000.091s, 015.1C,00002195
2016-11-19 19:25:13 r, 17.25m,0000000011Hz,0000041268c,0000000.090s, 015.4C,00002195
2016-11-19 19:35:13 r, 17.28m,0000000011Hz,0000042316c,0000000.092s, 015.4C,00002195
2016-11-19 19:45:13 r, 17.49m,0000000009Hz,0000051025c,0000000.111s, 015.4C,00002195
2016-11-19 19:55:13 r, 17.41m,0000000010Hz,0000047503c,0000000.103s, 015.4C,00002195
2016-11-19 20:05:13 r, 17.37m,0000000010Hz,0000045853c,0000000.100s, 015.4C,00002195
2016-11-19 20:15:13 r, 17.19m,0000000012Hz,0000039060c,0000000.085s, 015.4C,00002195
2016-11-19 20:25:13 r, 17.00m,0000000014Hz,0000032765c,0000000.071s, 015.4C,00002195
2016-11-19 20:35:13 r, 16.80m,0000000016Hz,0000027202c,0000000.059s, 015.4C,00002195
2016-11-19 20:45:13 r, 16.72m,0000000019Hz,0000025307c,0000000.055s, 015.7C,00002195
2016-11-19 20:55:13 r, 16.61m,0000000020Hz,0000022992c,0000000.050s, 015.7C,00002195
2016-11-19 21:05:13 r, 16.54m,0000000021Hz,0000021619c,0000000.047s, 015.7C,00002195
2016-11-19 21:15:13 r, 16.99m,0000000014Hz,0000032423c,0000000.070s, 015.7C,00002195
2016-11-19 21:25:13 r, 16.53m,0000000022Hz,0000021488c,0000000.047s, 015.7C,00002195
2016-11-19 21:35:13 r, 16.52m,0000000022Hz,0000021133c,0000000.046s, 015.7C,00002195
2016-11-19 21:45:13 r, 16.59m,0000000021Hz,0000022652c,0000000.049s, 015.7C,00002195
2016-11-19 21:55:13 r, 16.58m,0000000020Hz,0000022278c,0000000.048s, 015.7C,00002195
2016-11-19 22:05:13 r, 16.50m,0000000023Hz,0000020765c,0000000.045s, 015.7C,00002195
2016-11-19 22:15:13 r, 16.77m,0000000017Hz,0000026674c,0000000.058s, 015.7C,00002195
2016-11-19 22:25:13 r, 16.74m,0000000018Hz,0000025840c,0000000.056s, 015.7C,00002195
2016-11-19 22:35:13 r, 16.84m,0000000017Hz,0000028198c,0000000.061s, 015.7C,00002195
2016-11-19 22:45:13 r, 16.90m,0000000016Hz,0000029727c,0000000.065s, 015.4C,00002195
2016-11-19 22:55:13 r, 16.84m,0000000016Hz,0000028209c,0000000.061s, 015.4C,00002195
2016-11-19 23:05:13 r, 16.67m,0000000020Hz,0000023973c,0000000.052s, 015.4C,00002195
2016-11-19 23:15:13 r, 16.66m,0000000019Hz,0000023815c,0000000.052s, 015.4C,00002195
2016-11-19 23:25:13 r, 16.66m,0000000020Hz,0000023917c,0000000.052s, 015.4C,00002195
2016-11-19 23:35:13 r, 16.57m,0000000021Hz,0000022026c,0000000.048s, 015.4C,00002195
2016-11-19 23:45:13 r, 16.49m,0000000022Hz,0000020527c,0000000.045s, 015.4C,00002195
2016-11-19 23:55:13 r, 16.51m,0000000022Hz,0000020790c,0000000.045s, 015.4C,00002195
